Regional Weather Roundup
Issued by NWS

Home | Current Version | Previous Version | Graphics & Text | Print | Product List | Glossary On
Versions: 1 2 3 4 5 6 7 8 9 10 11 12 13 14 15 16 17 18 19 20 21 22 23 24 25 26 27 28 29 30 31 32 33 34 35 36 37 38 39 40 41 42 43 44 45 46 47 48 49 50
000
ASUS45 KPSR 020110
RWRAZ

ARIZONA HOURLY REGIONAL WEATHER ROUNDUP
NATIONAL WEATHER SERVICE PHOENIX AZ
600 PM MST WED JUL 01 2015

NOTE: FAIR INDICATES FEW OR NO CLOUDS BELOW 12,000 FEET WITH NO
SIGNIFICANT WEATHER AND/OR OBSTRUCTIONS TO VISIBILITY.

AZZ001>003-036-020200-
NORTHWEST ARIZONA

CITY           SKY/WX    TMP DP  RH WIND       PRES   REMARKS
BULLHEAD CITY  PTSUNNY  100  57  23 S24       29.74S
KINGMAN        PTSUNNY   90  54  29 S21G26    29.97S
$$

AZZ004>008-015-016-018-020200-
NORTH CENTRAL ARIZONA

CITY           SKY/WX    TMP DP  RH WIND       PRES   REMARKS
GRAND CANYON   CLOUDY    80  52  37 SW6       30.17F
WILLIAMS       CLOUDY    79  55  44 SW14G21   30.25F
PRESCOTT       PTSUNNY   84  57  39 SW16      30.08F
FLAGSTAFF      CLOUDY    78  56  46 SW8       30.22F
PAYSON         MOSUNNY   88  54  31 W9G16     30.10R
PAGE           PTSUNNY  102  40  12 E5        29.88S
$$

AZZ009>014-017-020200-
NORTHEAST ARIZONA

CITY           SKY/WX    TMP DP  RH WIND       PRES   REMARKS
WINSLOW        CLOUDY    89  54  30 SW18      29.99F
SAINT JOHNS    CLOUDY    85  55  35 SW23G30   30.02F
WINDOW ROCK    CLOUDY    76  59  55 NE6       30.13
SHOW LOW       CLOUDY    77  54  44 S14       30.15F
$$

AZZ023-020200-
GREATER PHOENIX AREA

CITY           SKY/WX    TMP DP  RH WIND       PRES   REMARKS
PHOENIX        PTSUNNY  102  57  22 W15G26    29.78S HX 101
BUCKEYE        MOSUNNY   99  59  26 SW16G23   29.82R
GLENDALE       PTSUNNY  102  59  24 S18G25    29.80S HX 102
LUKE AFB       PTSUNNY  102  59  24 SW17      29.78S HX 102
DEER VALLEY    PTSUNNY  100  56  23 W17G25    29.80S
SCOTTSDALE     PTSUNNY   99  58  25 SW16G25   29.82S
MESA-GATEWAY   PTSUNNY   99  61  28 SW17      29.84S
CHANDLER       PTSUNNY  100  59  25 SW20      29.81S HX 100
$$

AZZ027-028-020200-
SOUTHWEST MARICOPA COUNTY AND PINAL COUNTY

CITY           SKY/WX    TMP DP  RH WIND       PRES   REMARKS
CASA GRANDE    CLOUDY    95  61  31 W18       29.83F
GILA BEND      FAIR      97  60  29 SW15      29.83S
$$

AZZ503-504-507>509-020200-
SOUTHEAST ARIZONA

CITY           SKY/WX    TMP DP  RH WIND       PRES   REMARKS
TUCSON         CLOUDY    91  58  32 W8        29.96S
DAVIS-MONTHAN  CLOUDY    90  59  34 W8        29.94F
RYAN FIELD     SUNNY     91  61  35 W12       29.94F
NOGALES        PTSUNNY   74  64  71 SE3       30.06F
SIERRA VISTA   PTSUNNY   78  60  54 W16       30.10F
DOUGLAS        MOSUNNY   88  57  34 NW17G26   30.02R
SAFFORD        SUNNY     95  57  27 W31G37    29.86S
$$

AZZ020-021-025-026-031-020200-
SOUTHWEST ARIZONA

CITY           SKY/WX    TMP DP  RH WIND       PRES   REMARKS
YUMA           PTSUNNY   89  63  41 NW3       29.83F
$$

CAZ031-033-041-043-047-048-061-020200-
SOUTHERN CALIFORNIA

CITY           SKY/WX    TMP DP  RH WIND       PRES   REMARKS
DOWNTOWN L.A.  CLOUDY    77  59  53 W6        29.87F
L.A. AIRPORT   CLOUDY    69  63  81 W9        29.89S
SAN DIEGO      CLOUDY    73  65  75 S8        29.93S
BURBANK        PTSUNNY   84  52  33 S9G22     29.88S
ONTARIO        PTSUNNY   85  57  38 W12       29.87F
RIVERSIDE      CLOUDY    86  56  35 W9        29.88S
PALM SPRINGS   PTSUNNY   98  63  31 CALM      29.82F HX 100
EL CENTRO NAS  CLOUDY    92  67  43 SE13      29.81F
IMPERIAL       CLOUDY    93  66  40 S13       29.80S
BLYTHE         PTSUNNY   98  61  29 S22G28    29.80R
NEEDLES        CLOUDY    99  56  23 SW24G32   29.77F
$$

NVZ020-UTZ003-020200-
SOUTHERN NEVADA-UTAH

CITY           SKY/WX    TMP DP  RH WIND       PRES   REMARKS
LAS VEGAS      PTSUNNY  103  54  19 SW16G22   29.74F HX 101
SALT LAKE CITY PTSUNNY   96  50  20 NW10      29.97F
$$

NMZ009-TXZ055-020200-
NEW MEXICO-WEST TEXAS

CITY           SKY/WX    TMP DP  RH WIND       PRES   REMARKS
ALBUQUERQUE    PTSUNNY   94  47  20 SW8       30.01F
EL PASO        MOSUNNY   95  48  20 NE7       29.94S
$$


........................KEY........................
SKY/WX - SKY CONDITION/WEATHER
TMP    - TEMPERATURE IN FAHRENHEIT
DP     - DEW POINT IN FAHRENHEIT
RH     - RELATIVE HUMIDITY IN PERCENT
WIND   - DIRECTION AND SPEED IN MILES PER HOUR (MPH)
VRB    - VARIABLE WIND DIRECTION
PRES   - MEAN SEA LEVEL PRESSURE IN INCHES OF MERCURY
         F - FALLING PRESSURE   R - RISING PRESSURE
         S - STEADY PRESSURE
VSB    - VISIBILITY IN MILES
HX     - HEAT INDEX IN FAHRENHEIT
WCI    - WIND CHILL INDEX IN FAHRENHEIT
TC     - TEMPERATURE IN CELSIUS WHICH IS ALSO KNOWN AS
         TEMPERATURE IN CENTIGRADE
AFB    - AIR FORCE BASE
         LUKE AFB IS LUKE AIR FORCE BASE
         DAVIS-MONTHAN IS DAVIS-MONTHAN AIR FORCE BASE
NAS    - NAVAL AIR STATION
         EL CENTRO NAS IS EL CENTRO NAVAL AIR STATION
N/A    - NOT AVAILABLE



USA.gov is the U.S. government's official web portal to all federal, state and local government web resources and services.